Location: Beetenbrück
(52.8113°N, 9.5946°E)
Time: 21:15:19
(UTC+00:00)

NOSS 3-4 (A) - Pass Details

Date: 14 April 2026
Orbit: 769 x 1442 km, 63.4° (Epoch: 10 January)

Event Time Altitude Azimuth Distance (km) Brightness Sun altitude
Rises 19:51:28 0° 196° (SSW) 3,231 6.0 -13.2°
Reaches altitude 10° 19:53:55 10° 188° (S) 2,326 5.2 -13.5°
Maximum altitude 19:58:45 38° 121° (ESE) 1,236 3.6 -14.1°
Drops below altitude 10° 20:04:02 10° 55° (NE) 2,557 5.5 -14.7°
Sets 20:06:51 0° 48° (NE) 3,596 6.4 -15.0°
